| time (UTC) | temp C | wind direction | speed KPH | gust KPH | rain 1hr cm | rain 24hr cm | rain mn cm | humidity % | barometer mb |
| 20260504215043 | 23 | 328 | 1.6 | 11.3 | 0.00 | 0.00 | 0.00 | 36 | 1010.8 |
| 20260504214537 | 23 | 65 | 1.6 | 11.3 | 0.00 | 0.00 | 0.00 | 29 | 1010.8 |
| 20260504214030 | 24 | 317 | 3.2 | 11.3 | 0.00 | 0.00 | 0.00 | 34 | 1010.6 |
| 20260504213750 | 23 | 309 | 3.2 | 14.5 | 0.00 | 0.00 | 0.00 | 35 | 1010.7 |
| 20260504213019 | 23 | 5 | 1.6 | 14.5 | 0.00 | 0.00 | 0.00 | 32 | 1010.7 |
| 20260504212733 | 23 | 349 | 1.6 | 6.4 | 0.00 | 0.00 | 0.00 | 35 | 1010.9 |
| 20260504212006 | 24 | 250 | 1.6 | 8.0 | 0.00 | 0.00 | 0.00 | 34 | 1010.9 |
| 20260504211501 | 23 | 295 | 1.6 | 8.0 | 0.00 | 0.00 | 0.00 | 31 | 1010.8 |
| 20260504210954 | 23 | 21 | 1.6 | 4.8 | 0.00 | 0.00 | 0.00 | 34 | 1010.9 |
| 20260504210453 | 23 | 305 | 1.6 | 4.8 | 0.00 | 0.00 | 0.00 | 33 | 1010.9 |
| 20260504205953 | 23 | 300 | 1.6 | 4.8 | 0.00 | 0.00 | 0.00 | 35 | 1010.9 |
| 20260504205721 | 23 | 263 | 1.6 | 9.7 | 0.00 | 0.00 | 0.00 | 34 | 1010.9 |
| 20260504204951 | 23 | 347 | 1.6 | 9.7 | 0.00 | 0.00 | 0.00 | 36 | 1011.1 |
| 20260504204450 | 23 | 209 | 1.6 | 8.0 | 0.00 | 0.00 | 0.00 | 34 | 1011.0 |
| 20260504203951 | 23 | 317 | 1.6 | 6.4 | 0.00 | 0.00 | 0.00 | 35 | 1011.0 |
| 20260504203450 | 23 | 346 | 1.6 | 8.0 | 0.00 | 0.00 | 0.00 | 36 | 1011.0 |
| 20260504202950 | 23 | 305 | 1.6 | 8.0 | 0.00 | 0.00 | 0.00 | 34 | 1011.1 |
| 20260504202448 | 23 | 219 | 1.6 | 6.4 | 0.00 | 0.00 | 0.00 | 38 | 1011.1 |
| 20260504201949 | 22 | 285 | 3.2 | 8.0 | 0.00 | 0.00 | 0.00 | 36 | 1011.1 |
| 20260504201448 | 22 | 47 | 1.6 | 8.0 | 0.00 | 0.00 | 0.00 | 35 | 1011.1 |
| 20260504200948 | 22 | 96 | 1.6 | 8.0 | 0.00 | 0.00 | 0.00 | 36 | 1011.2 |
| 20260504200448 | 22 | 13 | 1.6 | 8.0 | 0.00 | 0.00 | 0.00 | 37 | 1011.1 |
| 20260504195948 | 22 | 296 | 1.6 | 6.4 | 0.00 | 0.00 | 0.00 | 37 | 1011.1 |
| 20260504195448 | 22 | 308 | 1.6 | 6.4 | 0.00 | 0.00 | 0.00 | 38 | 1011.1 |
| 20260504194946 | 22 | 284 | 1.6 | 4.8 | 0.00 | 0.00 | 0.00 | 38 | 1011.1 |
| 20260504194447 | 22 | 257 | 1.6 | 8.0 | 0.00 | 0.00 | 0.00 | 37 | 1011.1 |
| 20260504193944 | 22 | 41 | 1.6 | 8.0 | 0.00 | 0.00 | 0.00 | 38 | 1011.3 |
| 20260504193445 | 22 | 88 | 1.6 | 6.4 | 0.00 | 0.00 | 0.00 | 39 | 1011.3 |
| 20260504192944 | 22 | 305 | 1.6 | 3.2 | 0.00 | 0.00 | 0.00 | 37 | 1011.3 |
| 20260504192444 | 22 | 27 | 1.6 | 6.4 | 0.00 | 0.00 | 0.00 | 39 | 1011.3 |
| 20260504192201 | 21 | 280 | 3.2 | 16.1 | 0.00 | 0.00 | 0.00 | 38 | 1011.3 |
| 20260504191444 | 21 | 296 | 1.6 | 16.1 | 0.00 | 0.00 | 0.00 | 39 | 1011.4 |
| 20260504190945 | 21 | 306 | 1.6 | 6.4 | 0.00 | 0.00 | 0.00 | 37 | 1011.3 |
| 20260504190444 | 21 | 344 | 3.2 | 6.4 | 0.00 | 0.00 | 0.00 | 38 | 1011.4 |
| 20260504185944 | 21 | 82 | 1.6 | 4.8 | 0.00 | 0.00 | 0.00 | 36 | 1011.4 |
| 20260504185709 | 21 | 355 | 1.6 | 4.8 | 0.00 | 0.00 | 0.00 | 39 | 1011.5 |
| 20260504184944 | 21 | 271 | 1.6 | 6.4 | 0.00 | 0.00 | 0.00 | 39 | 1011.4 |
| 20260504184444 | 21 | 182 | 1.6 | 6.4 | 0.00 | 0.00 | 0.00 | 42 | 1011.4 |
| 20260504183944 | 21 | 91 | 1.6 | 4.8 | 0.00 | 0.00 | 0.00 | 44 | 1011.5 |
| 20260504183444 | 20 | 279 | 1.6 | 4.8 | 0.00 | 0.00 | 0.00 | 41 | 1011.4 |
| 20260504182944 | 20 | 305 | 1.6 | 4.8 | 0.00 | 0.00 | 0.00 | 45 | 1011.5 |
| 20260504182445 | 20 | 0 | 1.6 | 11.3 | 0.00 | 0.00 | 0.00 | 42 | 1011.5 |
| 20260504181944 | 20 | 283 | 1.6 | 11.3 | 0.00 | 0.00 | 0.00 | 44 | 1011.6 |
| 20260504181444 | 20 | 333 | 1.6 | 6.4 | 0.00 | 0.00 | 0.00 | 44 | 1011.6 |
| 20260504180944 | 20 | 302 | 1.6 | 6.4 | 0.00 | 0.00 | 0.00 | 43 | 1011.6 |
| 20260504180444 | 20 | 312 | 1.6 | 6.4 | 0.00 | 0.00 | 0.00 | 41 | 1011.6 |
| 20260504180201 | 20 | 304 | 1.6 | 6.4 | 0.00 | 0.00 | 0.00 | 44 | 1011.6 |
| 20260504175443 | 19 | 296 | 1.6 | 6.4 | 0.00 | 0.00 | 0.00 | 43 | 1011.4 |
| 20260504174945 | 19 | 326 | 1.6 | 4.8 | 0.00 | 0.00 | 0.00 | 42 | 1011.5 |
| 20260504174707 | 19 | 321 | 1.6 | 4.8 | 0.00 | 0.00 | 0.00 | 44 | 1011.4 |
| 20260504173942 | 19 | 65 | 1.6 | 8.0 | 0.00 | 0.00 | 0.00 | 42 | 1011.4 |
| 20260504173443 | 19 | 0 | 1.6 | 8.0 | 0.00 | 0.00 | 0.00 | 43 | 1011.4 |
| 20260504172943 | 19 | 321 | 1.6 | 12.9 | 0.00 | 0.00 | 0.00 | 44 | 1011.4 |
| 20260504172437 | 19 | 284 | 1.6 | 12.9 | 0.00 | 0.00 | 0.00 | 44 | 1011.3 |
| 20260504171930 | 19 | 288 | 1.6 | 8.0 | 0.00 | 0.00 | 0.00 | 41 | 1011.4 |
| 20260504171653 | 19 | 303 | 1.6 | 6.4 | 0.00 | 0.00 | 0.00 | 44 | 1011.2 |
| 20260504170919 | 18 | 304 | 0.0 | 6.4 | 0.00 | 0.00 | 0.00 | 47 | 1011.3 |
| 20260504170412 | 18 | 284 | 1.6 | 6.4 | 0.00 | 0.00 | 0.00 | 44 | 1011.2 |
| 20260504151047 | 13 | 70 | 0.0 | 1.6 | 0.00 | 0.00 | 0.00 | 63 | 1011.5 |
| 20260504150321 | 12 | 70 | 0.0 | 0.0 | 0.00 | 0.00 | 0.00 | 66 | 1011.4 |
| 20260504141221 | 10 | 42 | 0.0 | 3.2 | 0.00 | 0.00 | 0.00 | 70 | 1011.1 |
| 20260504140716 | 10 | 82 | 0.0 | 0.0 | 0.00 | 0.00 | 0.00 | 71 | 1011.1 |
| 20260504140210 | 10 | 82 | 0.0 | 0.0 | 0.00 | 0.00 | 0.00 | 71 | 1011.1 |
| 20260504130603 | 10 | 60 | 0.0 | 0.0 | 0.00 | 0.00 | 0.00 | 67 | 1010.6 |
| 20260504110556 | 9 | 89 | 1.6 | 3.2 | 0.00 | 0.00 | 0.00 | 72 | 1010.0 |
| 20260504100238 | 8 | 89 | 0.0 | 1.6 | 0.00 | 0.00 | 0.00 | 75 | 1010.1 |
| 20260504081731 | 11 | 89 | 0.0 | 0.0 | 0.00 | 0.00 | 0.00 | 67 | 1010.0 |
| 20260504081231 | 11 | 89 | 0.0 | 0.0 | 0.00 | 0.00 | 0.00 | 68 | 1009.9 |
| 20260504080744 | 11 | 89 | 0.0 | 0.0 | 0.00 | 0.00 | 0.00 | 66 | 1009.9 |
| 20260504080231 | 10 | 89 | 0.0 | 0.0 | 0.00 | 0.00 | 0.00 | 67 | 1009.9 |
| 20260504070353 | 11 | 89 | 0.0 | 3.2 | 0.00 | 0.00 | 0.00 | 64 | 1009.8 |
| 20260504045751 | 14 | 113 | 0.0 | 0.0 | 0.00 | 0.00 | 0.00 | 57 | 1010.0 |
| 20260504045023 | 14 | 113 | 0.0 | 1.6 | 0.00 | 0.00 | 0.00 | 58 | 1010.0 |
| 20260504044518 | 14 | 113 | 0.0 | 1.6 | 0.00 | 0.00 | 0.00 | 55 | 1009.9 |
| 20260504044012 | 14 | 113 | 0.0 | 0.0 | 0.00 | 0.00 | 0.00 | 56 | 1010.0 |
| 20260504043507 | 15 | 113 | 0.0 | 0.0 | 0.00 | 0.00 | 0.00 | 58 | 1010.0 |
| 20260504043000 | 15 | 113 | 0.0 | 1.6 | 0.00 | 0.00 | 0.00 | 55 | 1010.0 |
| 20260504042454 | 15 | 113 | 0.0 | 3.2 | 0.00 | 0.00 | 0.00 | 53 | 1010.0 |
| 20260504041948 | 15 | 113 | 0.0 | 3.2 | 0.00 | 0.00 | 0.00 | 57 | 1009.9 |
| 20260504041442 | 15 | 113 | 0.0 | 3.2 | 0.00 | 0.00 | 0.00 | 54 | 1010.0 |
| 20260504041156 | 15 | 113 | 0.0 | 0.0 | 0.00 | 0.00 | 0.00 | 54 | 1009.9 |
| 20260504040430 | 16 | 113 | 0.0 | 0.0 | 0.00 | 0.00 | 0.00 | 50 | 1009.9 |
| 20260504035924 | 16 | 113 | 0.0 | 3.2 | 0.00 | 0.00 | 0.00 | 50 | 1009.9 |
| 20260504035418 | 16 | 113 | 1.6 | 3.2 | 0.00 | 0.00 | 0.00 | 50 | 1009.9 |
| 20260504034911 | 16 | 113 | 1.6 | 3.2 | 0.00 | 0.00 | 0.00 | 50 | 1009.8 |
| 20260504034627 | 16 | 113 | 0.0 | 3.2 | 0.00 | 0.00 | 0.00 | 49 | 1009.7 |
| 20260504033353 | 17 | 155 | 0.0 | 3.2 | 0.00 | 0.00 | 0.00 | 49 | 1009.6 |
| 20260504032341 | 18 | 155 | 0.0 | 0.0 | 0.00 | 0.00 | 0.00 | 48 | 1009.7 |
| 20260504031835 | 19 | 155 | 0.0 | 1.6 | 0.00 | 0.00 | 0.00 | 47 | 1009.6 |
| 20260504031330 | 19 | 155 | 0.0 | 1.6 | 0.00 | 0.00 | 0.00 | 40 | 1009.6 |
| 20260504030823 | 19 | 155 | 0.0 | 1.6 | 0.00 | 0.00 | 0.00 | 40 | 1009.7 |
| 20260504030318 | 20 | 155 | 1.6 | 3.2 | 0.00 | 0.00 | 0.00 | 41 | 1009.7 |
| 20260504025811 | 20 | 155 | 0.0 | 3.2 | 0.00 | 0.00 | 0.00 | 40 | 1009.7 |
| 20260504025306 | 21 | 155 | 0.0 | 3.2 | 0.00 | 0.00 | 0.00 | 39 | 1009.6 |
| 20260504024800 | 21 | 155 | 0.0 | 0.0 | 0.00 | 0.00 | 0.00 | 38 | 1009.6 |
| 20260504024254 | 21 | 155 | 0.0 | 0.0 | 0.00 | 0.00 | 0.00 | 37 | 1009.5 |
| 20260504023748 | 22 | 155 | 0.0 | 1.6 | 0.00 | 0.00 | 0.00 | 36 | 1009.5 |
| 20260504023242 | 22 | 155 | 0.0 | 1.6 | 0.00 | 0.00 | 0.00 | 34 | 1009.6 |
| 20260504022736 | 22 | 209 | 0.0 | 0.0 | 0.00 | 0.00 | 0.00 | 35 | 1009.6 |
| 20260504022451 | 22 | 209 | 0.0 | 1.6 | 0.00 | 0.00 | 0.00 | 34 | 1009.6 |
| 20260504021723 | 22 | 209 | 0.0 | 6.4 | 0.00 | 0.00 | 0.00 | 34 | 1009.5 |
| 20260504021218 | 23 | 176 | 0.0 | 6.4 | 0.00 | 0.00 | 0.00 | 34 | 1009.5 |
| 20260504020712 | 23 | 198 | 0.0 | 4.8 | 0.00 | 0.00 | 0.00 | 33 | 1009.7 |
| 20260504020204 | 23 | 226 | 0.0 | 3.2 | 0.00 | 0.00 | 0.00 | 32 | 1009.6 |
| 20260504015704 | 23 | 233 | 1.6 | 4.8 | 0.00 | 0.00 | 0.00 | 32 | 1009.7 |
| 20260504015150 | 24 | 222 | 1.6 | 6.4 | 0.00 | 0.00 | 0.00 | 30 | 1009.6 |
| 20260504014908 | 24 | 250 | 3.2 | 6.4 | 0.00 | 0.00 | 0.00 | 32 | 1009.8 |
| 20260504014401 | 24 | 223 | 3.2 | 6.4 | 0.00 | 0.00 | 0.00 | 27 | 1009.8 |
| 20260504013631 | 25 | 186 | 3.2 | 8.0 | 0.00 | 0.00 | 0.00 | 28 | 1009.7 |
| 20260504013126 | 25 | 214 | 3.2 | 8.0 | 0.00 | 0.00 | 0.00 | 28 | 1009.8 |
| 20260504012620 | 25 | 196 | 4.8 | 11.3 | 0.00 | 0.00 | 0.00 | 28 | 1009.9 |
| 20260504012114 | 25 | 241 | 3.2 | 11.3 | 0.00 | 0.00 | 0.00 | 27 | 1009.9 |
| 20260504011607 | 25 | 237 | 4.8 | 11.3 | 0.00 | 0.00 | 0.00 | 28 | 1010.0 |
| 20260504011321 | 25 | 229 | 3.2 | 11.3 | 0.00 | 0.00 | 0.00 | 26 | 1010.0 |
| 20260504010058 | 26 | 223 | 1.6 | 9.7 | 0.00 | 0.00 | 0.00 | 27 | 1010.1 |
| 20260504005557 | 25 | 234 | 3.2 | 11.3 | 0.00 | 0.00 | 0.00 | 27 | 1010.1 |
| 20260504005057 | 25 | 234 | 3.2 | 11.3 | 0.00 | 0.00 | 0.00 | 25 | 1010.2 |
| 20260504004554 | 25 | 219 | 4.8 | 12.9 | 0.00 | 0.00 | 0.00 | 28 | 1010.2 |
| 20260504004054 | 25 | 257 | 4.8 | 14.5 | 0.00 | 0.00 | 0.00 | 28 | 1010.3 |
| 20260504003555 | 26 | 208 | 3.2 | 14.5 | 0.00 | 0.00 | 0.00 | 24 | 1010.3 |
| 20260504003315 | 26 | 216 | 4.8 | 14.5 | 0.00 | 0.00 | 0.00 | 24 | 1010.3 |
| 20260504002552 | 26 | 236 | 3.2 | 14.5 | 0.00 | 0.00 | 0.00 | 25 | 1010.3 |
| 20260504002052 | 26 | 234 | 1.6 | 8.0 | 0.00 | 0.00 | 0.00 | 27 | 1010.3 |
| 20260504001553 | 26 | 239 | 0.0 | 11.3 | 0.00 | 0.00 | 0.00 | 26 | 1010.4 |
| 20260504001318 | 26 | 301 | 1.6 | 11.3 | 0.00 | 0.00 | 0.00 | 27 | 1010.3 |
| 20260504000812 | 26 | 216 | 3.2 | 11.3 | 0.00 | 0.00 | 0.00 | 28 | 1010.4 |
| 20260504000054 | 26 | 302 | 4.8 | 12.9 | 0.00 | 0.00 | 0.00 | 25 | 1010.6 |
| 20260503235554 | 26 | 199 | 4.8 | 12.9 | 0.00 | 0.00 | 0.00 | 22 | 1010.6 |
| 20260503235052 | 26 | 235 | 3.2 | 12.9 | 0.00 | 0.00 | 0.00 | 24 | 1010.7 |
| 20260503234550 | 26 | 246 | 3.2 | 11.3 | 0.00 | 0.00 | 0.00 | 23 | 1010.7 |
| 20260503234048 | 26 | 207 | 3.2 | 12.9 | 0.00 | 0.00 | 0.00 | 23 | 1010.7 |
| 20260503233548 | 26 | 248 | 1.6 | 12.9 | 0.00 | 0.00 | 0.00 | 26 | 1010.8 |
| 20260503233311 | 26 | 17 | 1.6 | 11.3 | 0.00 | 0.00 | 0.00 | 26 | 1010.8 |
| 20260503232546 | 26 | 355 | 1.6 | 11.3 | 0.00 | 0.00 | 0.00 | 24 | 1010.9 |
| 20260503232047 | 26 | 264 | 1.6 | 9.7 | 0.00 | 0.00 | 0.00 | 25 | 1011.0 |
| 20260503231546 | 26 | 216 | 3.2 | 6.4 | 0.00 | 0.00 | 0.00 | 22 | 1011.0 |
| 20260503231046 | 26 | 250 | 3.2 | 11.3 | 0.00 | 0.00 | 0.00 | 21 | 1011.0 |
| 20260503230546 | 26 | 236 | 1.6 | 11.3 | 0.00 | 0.00 | 0.00 | 20 | 1011.2 |
| 20260503230047 | 26 | 314 | 1.6 | 4.8 | 0.00 | 0.00 | 0.00 | 24 | 1011.1 |
| 20260503225546 | 26 | 231 | 1.6 | 6.4 | 0.00 | 0.00 | 0.00 | 22 | 1011.2 |
| 20260503225046 | 25 | 184 | 3.2 | 11.3 | 0.00 | 0.00 | 0.00 | 22 | 1011.2 |
| 20260503224546 | 25 | 193 | 3.2 | 11.3 | 0.00 | 0.00 | 0.00 | 20 | 1011.4 |
| 20260503224046 | 25 | 260 | 3.2 | 11.3 | 0.00 | 0.00 | 0.00 | 21 | 1011.4 |
| 20260503223546 | 25 | 219 | 3.2 | 8.0 | 0.00 | 0.00 | 0.00 | 21 | 1011.6 |
| 20260503223046 | 25 | 95 | 3.2 | 11.3 | 0.00 | 0.00 | 0.00 | 20 | 1011.6 |
| 20260503222546 | 25 | 107 | 3.2 | 11.3 | 0.00 | 0.00 | 0.00 | 20 | 1011.7 |
| 20260503222304 | 25 | 248 | 3.2 | 9.7 | 0.00 | 0.00 | 0.00 | 23 | 1011.7 |
| 20260503221546 | 25 | 244 | 1.6 | 9.7 | 0.00 | 0.00 | 0.00 | 21 | 1011.8 |
| 20260503221047 | 25 | 182 | 1.6 | 12.9 | 0.00 | 0.00 | 0.00 | 21 | 1011.8 |
| 20260503220544 | 25 | 250 | 3.2 | 12.9 | 0.00 | 0.00 | 0.00 | 21 | 1012.0 |
| 20260503220044 | 25 | 213 | 3.2 | 11.3 | 0.00 | 0.00 | 0.00 | 21 | 1012.0 |
| 20260503215544 | 25 | 327 | 3.2 | 11.3 | 0.00 | 0.00 | 0.00 | 23 | 1012.1 |